Regional Weather Roundup
Issued by NWS

Home | Current Version | Previous Version | Graphics & Text | Print | Product List | Glossary On
Versions: 1 2 3 4 5 6 7 8 9 10 11 12 13 14 15 16 17 18 19 20 21 22 23 24 25 26 27 28 29 30 31 32 33 34 35 36 37 38 39 40 41 42 43 44 45 46 47 48 49 50
710
ASUS44 KMEG 280510
RWRTN
TENNESSEE HOURLY STATE WEATHER ROUNDUP
NATIONAL WEATHER SERVICE MEMPHIS TN
1200 AM CDT WED JUN 28 2017

TNZ002-004-019-021-049-052-054-088>092-280600-
WEST TENNESSEE

CITY           SKY/WX    TMP DP  RH WIND       PRES   REMARKS
MEMPHIS INTL   PTCLDY    77  65  66 SE8       30.06S
NWS MEMPHIS      N/A     72 N/A N/A MISG        N/A
JACKSON        CLEAR     65  64  97 CALM      30.09R
SOMERVILLE     CLEAR     68  64  88 CALM      30.07S
COVINGTON      CLEAR     68  66  94 CALM      30.07S
UNION CITY     CLEAR     70  59  68 SE3       30.07S
BOLIVAR        CLEAR     64  64 100 CALM      30.08S
HUNTINGDON     CLEAR     64  63  94 CALM      30.09R
LEXINGTON      CLEAR     61  61 100 CALM      30.09S FOG
SELMER         CLEAR     64  63  94 E5        30.09S
SAVANNAH       CLEAR     63  63 100 CALM      30.09S
$$

TNZ008-025-027-028-033-062-065-066-280600-
NORTH MIDDLE TENNESSEE

CITY           SKY/WX    TMP DP  RH WIND       PRES   REMARKS
NASHVILLE      CLEAR     67  59  75 S3        30.12R
PORTLAND       CLEAR     61  57  88 CALM      30.12R
CLARKSVILLE    PTCLDY    61  55  81 CALM      30.11R
SMYRNA         CLEAR     62  59  90 CALM      30.13R
COOKEVILLE     CLEAR     55  55 100 CALM      30.13S
GALLATIN       PTCLDY    61  57  88 CALM      30.14S
CROSSVILLE     CLEAR     55  52  89 CALM      30.17F
$$

TNZ061-075-076-078-094-096-097-280600-
SOUTH MIDDLE TENNESSEE

CITY           SKY/WX    TMP DP  RH WIND       PRES   REMARKS
FAYETTEVILLE   CLEAR     63  57  82 CALM      30.12R
TULLAHOMA      CLEAR     57  55  94 CALM      30.14S
WINCHESTER     CLEAR     57  55  94 CALM      30.13S
MCMINNVILLE    CLEAR     57  57 100 CALM      30.14S
COLUMBIA       CLEAR     63  63 100 CALM      30.09S
SHELBYVILLE    CLEAR     61  59  94 E5        30.12S
$$

TNZ017-018-042-046-047-280600-
NORTHEAST TENNESSEE

CITY           SKY/WX    TMP DP  RH WIND       PRES   REMARKS
TRI CITIES     CLEAR     56  51  84 CALM      30.17R
ELIZABETHTON   CLEAR     54  50  87 CALM      30.18S
$$

TNZ012-013-036-069-073-074-280600-
CENTRAL EAST TENNESSEE

CITY           SKY/WX    TMP DP  RH WIND       PRES   REMARKS
KNOXVILLE      CLEAR     61  54  77 NE6       30.13S
OAK RIDGE      CLEAR     60  55  83 CALM      30.16S
DOWNTOWN KNOXV CLEAR     59  59 100 CALM      30.13F
GATLINBURG     CLEAR     55  52  88 CALM      30.14F
MORRISTOWN     CLEAR     59  54  82 CALM      30.15S
JACKSBORO        N/A     55  55 100 CALM      30.19S
$$

TNZ083-085-099-280600-
SOUTHEAST TENNESSEE

CITY           SKY/WX    TMP DP  RH WIND       PRES   REMARKS
CHATTANOOGA    CLEAR     64  58  80 CALM      30.12S
DAYTON         PTCLDY    59  59 100 CALM      30.12F
$$

SKY/WX REPORTED AS FAIR MEANS FEW OR NO CLOUDS BELOW
12 THOUSAND FEET.





USA.gov is the U.S. government's official web portal to all federal, state and local government web resources and services.